Location: Bergnershof
(48.9468°N, 10.9431°E)
Time: 10:18:22
(UTC+00:00)

FALCON 9 DEB - Pass Details

Date: 03 March 2021
Orbit: 424 x 435 km, 53.0° (Epoch: 12 April)

Event Time Altitude Azimuth Distance (km) Brightness Sun altitude
Rises 18:20:45 0° 294° (WNW) 2,405 8.4 -13.6°
Reaches altitude 10° 18:22:52 10° 293° (WNW) 1,533 7.2 -13.9°
Maximum altitude 18:26:18 74° 208° (SSW) 451 3.2 -14.5°
Enters shadow 18:28:01 27° 128° (SE) 859 4.1 -14.7°
